TimeMST,TemperatureF,Dew PointF,Humidity,Sea Level PressureIn,VisibilityMPH,Wind Direction,Wind SpeedMPH,Gust SpeedMPH,PrecipitationIn,Events,Conditions,WindDirDegrees,DateUTC
12:53 AM,39.0,23.0,53,30.10,10.0,ESE,4.6,-,N/A,,Clear,120,2013-01-09 07:53:00
1:53 AM,36.0,24.1,62,30.10,10.0,Calm,Calm,-,0.00,Snow,Light Snow,0,2013-01-09 08:53:00
2:53 AM,35.1,23.0,61,30.12,9.0,SE,5.8,-,0.00,Snow,Light Snow,140,2013-01-09 09:53:00
3:53 AM,35.1,23.0,61,30.13,10.0,SSE,8.1,-,N/A,,Clear,150,2013-01-09 10:53:00
4:53 AM,35.1,21.9,59,30.13,10.0,SE,6.9,-,N/A,,Clear,140,2013-01-09 11:53:00
5:53 AM,35.1,21.9,59,30.14,10.0,SE,8.1,-,N/A,,Clear,140,2013-01-09 12:53:00
6:53 AM,37.0,21.0,52,30.15,10.0,SE,10.4,-,N/A,,Clear,140,2013-01-09 13:53:00
7:53 AM,36.0,21.9,57,30.18,10.0,SE,8.1,-,N/A,,Clear,130,2013-01-09 14:53:00
8:53 AM,42.8,23.0,46,30.21,10.0,Calm,Calm,-,N/A,,Clear,0,2013-01-09 15:53:00
9:53 AM,57.2,21.2,25,30.22,10.0,East,5.8,-,N/A,,Clear,90,2013-01-09 16:53:00
10:53 AM,64.0,15.1,15,30.15,10.0,ESE,17.3,25.3,N/A,,Clear,120,2013-01-09 17:53:00
11:53 AM,66.9,15.1,14,30.12,10.0,ESE,19.6,24.2,N/A,,Clear,120,2013-01-09 18:53:00
12:53 PM,68.0,12.9,12,30.08,10.0,ESE,17.3,25.3,N/A,,Clear,110,2013-01-09 19:53:00
1:53 PM,69.1,12.9,11,30.04,10.0,ESE,12.7,-,N/A,,Clear,110,2013-01-09 20:53:00
2:53 PM,70.0,12.9,11,30.03,10.0,ESE,13.8,-,N/A,,Clear,110,2013-01-09 21:53:00
3:53 PM,70.0,12.0,11,30.03,10.0,East,13.8,19.6,N/A,,Clear,100,2013-01-09 22:53:00
4:53 PM,68.0,10.9,11,30.02,10.0,ESE,12.7,-,N/A,,Clear,110,2013-01-09 23:53:00
5:53 PM,63.0,12.9,14,30.03,10.0,ESE,10.4,-,N/A,,Clear,120,2013-01-10 00:53:00
6:53 PM,61.0,14.0,16,30.03,10.0,ESE,10.4,-,N/A,,Clear,110,2013-01-10 01:53:00
7:53 PM,59.0,14.0,17,30.03,10.0,ESE,9.2,-,N/A,,Clear,110,2013-01-10 02:53:00
8:53 PM,53.1,14.0,21,30.03,10.0,SSE,9.2,-,N/A,,Clear,150,2013-01-10 03:53:00
9:53 PM,50.0,17.1,27,30.01,10.0,SSE,5.8,-,N/A,,Clear,150,2013-01-10 04:53:00
10:53 PM,46.0,19.0,34,30.01,10.0,SSE,5.8,-,N/A,,Clear,160,2013-01-10 05:53:00
11:53 PM,46.4,19.4,34,30.07,10.0,SE,8.1,-,N/A,,Clear,140,2013-01-10 06:53:00